#timestamp,LO_Frequency,Hit,StdDev 
1554566415.3,286046999.5,N
1554566435.1,286046997.8,N
1554566455.9,286046995.5,N
1554566475.7,286046997.3,N
1554566495.5,286046997.2,N
1554566515.4,286046997.2,N
1554566535.2,286046997.5,N
1554566555.1,286046995.3,N
1554566556.0,286046995.3,N
1554566575.8,286046995.2,N
1554566595.6,286046996.0,N
1554566615.5,286046996.4,N
1554566635.3,286046995.7,N
1554566655.1,286046995.7,N
1554566675.9,286046995.8,N
1554566695.7,286046995.6,N
1554566715.6,286046995.9,N
1554566735.4,286046993.4,Y
1554566755.2,286046997.7,P
1554566775.1,286046996.2,P
1554566776.0,286046996.2,P
1554566795.8,286046996.4,Y
1554566815.7,286046996.9,P
1554566835.5,286046999.6,P
1554566855.3,286046999.1,N
1554566875.2,286046998.3,N
1554566895.0,286046998.3,N
1554566895.9,286046998.3,N
1554566915.8,286046999.3,N
1554566935.6,286046998.9,N
1554566955.4,286046999.1,N
1554566975.3,286046999.4,N
1554566995.1,286046999.5,N
1554567015.9,286046998.7,N
1554567035.7,286046999.3,N
1554567055.5,286046999.6,N
1554567075.4,286046998.4,N
1554567095.2,286047000.1,N
1554567115.0,286047000.6,N
1554567115.9,286047000.6,N
1554567135.8,286046999.9,N
1554567155.6,286047000.5,N
1554567175.5,286046998.2,N
1554567195.3,286047000.8,N
1554567215.1,286046998.9,N
1554567235.9,286046999.1,N
1554567255.7,286046998.4,N
1554567275.5,286046998.7,N
1554567295.4,286047001.2,N
1554567315.2,286047000.4,N
1554567335.1,286047001.0,N
1554567336.0,286047001.0,N
1554567355.8,286047001.1,N
1554567375.6,286047000.8,N
1554567395.5,286047000.2,N
1554567415.3,286047000.6,N
1554567435.2,286047000.6,N
1554567455.9,286047000.8,N
1554567475.7,286046998.7,N
1554567495.6,286046999.3,N
1554567515.4,286046999.4,N
1554567535.2,286046997.7,N
1554567555.1,286046995.0,Y
1554567556.0,286046995.0,P
1554567575.8,286046999.5,N
1554567595.7,286046999.2,N
1554567615.5,286046997.5,N
1554567635.3,286046995.0,N
1554567655.2,286046995.0,N
1554567675.0,286046997.9,N
1554567675.9,286046997.9,N
1554567695.8,286046996.7,N
1554567715.6,286046997.0,N
1554567735.4,286046996.7,N
1554567755.3,286046997.2,N
1554567775.1,286046994.9,Y
1554567795.9,286046999.1,P
1554567815.7,286046999.1,N
1554567835.5,286047000.8,N
1554567855.4,286046999.4,N
1554567875.2,286046999.3,N
1554567895.0,286046996.8,Y
1554567895.9,286046996.8,P
1554567915.8,286047000.8,N
1554567935.6,286046998.6,N
1554567955.9,286047002.8,N
1554567975.7,286047002.7,N
1554567995.5,286047001.7,N
1554568015.4,286047001.4,N
1554568035.2,286047002.0,N
1554568055.0,286047002.6,N
1554568055.9,286047002.6,N
1554568075.8,286046998.6,N
1554568095.6,286046998.4,N
1554568115.5,286046999.1,N
1554568135.3,286046999.4,N
1554568155.1,286046999.1,N
1554568175.9,286046999.5,N
1554568195.7,286046996.6,N
1554568215.6,286046996.8,N
1554568235.4,286046997.1,N
1554568255.2,286046996.9,N
1554568275.1,286046999.4,N
1554568276.0,286046999.4,N
1554568295.8,286046999.5,N
1554568315.6,286046998.5,N
1554568335.5,286046999.5,N
1554568355.3,286046996.5,N
1554568375.1,286046997.1,N
1554568395.9,286046997.0,N
1554568415.7,286046999.5,N
1554568435.6,286046999.4,N
1554568455.4,286046996.9,N
1554568475.2,286046999.1,N
1554568495.1,286046998.2,N
1554568496.0,286046998.2,N
1554568515.8,286046999.8,N
1554568535.6,286047000.8,N
1554568555.5,286047000.7,N
1554568575.3,286047001.2,N
1554568595.2,286047000.7,N
1554568615.9,286046998.5,N
1554568635.7,286047000.5,N
1554568655.6,286047002.3,N
1554568675.4,286047000.0,N
1554568695.2,286047000.0,N
1554568715.1,286047000.3,N
1554568716.0,286047000.3,N
1554568735.8,286047001.1,N
1554568755.7,286047000.7,N
1554568775.5,286047000.2,N
1554568795.3,286046999.8,N
1554568815.2,286047001.4,N
1554568835.0,286047001.6,N
1554568835.9,286047001.6,N
1554568855.7,286047003.9,N
1554568875.6,286047001.8,N
1554568895.4,286047001.3,N
1554568915.3,286047000.1,N
1554568935.1,286047002.8,N
1554568955.8,286047002.0,N
1554568975.7,286047001.7,N
1554568995.5,286047002.2,N
1554569015.4,286047004.0,Y
1554569035.2,286047000.3,P
1554569055.0,286047004.3,P
1554569055.9,286047004.3,N
1554569075.8,286047002.0,N
1554569095.6,286047002.7,N
1554569115.4,286046998.9,N
1554569135.3,286046998.5,N
1554569155.1,286046998.1,N
1554569175.9,286047000.7,N
1554569195.7,286047000.0,N
1554569215.5,286047001.8,N
1554569235.4,286047002.0,N
1554569255.2,286047001.7,N
1554569275.0,286047002.2,N
1554569275.9,286047002.2,N
1554569295.8,286047000.9,N
1554569315.6,286047002.5,N
1554569335.4,286047001.8,N
1554569355.3,286046999.8,N
1554569375.1,286047001.5,N
1554569395.9,286047001.3,N
1554569415.7,286047004.3,N
1554569435.5,286047001.5,N
1554569455.4,286047001.8,N
1554569475.2,286047001.4,N
1554569495.0,286047003.0,N
1554569495.9,286047003.0,N
1554569515.8,286047003.4,N
1554569535.6,286047003.3,N
1554569555.5,286047001.4,N
1554569575.3,286047001.6,N
1554569595.1,286047001.7,N
1554569615.9,286047003.5,N
1554569635.7,286047003.4,N
1554569655.5,286047005.4,Y
1554569675.4,286047003.2,P
1554569695.2,286047003.1,P
1554569715.1,286047006.0,P
1554569716.0,286047006.0,Y
1554569735.8,286046998.5,P
1554569755.6,286046999.0,N
1554569775.5,286046999.3,N
1554569795.3,286046999.1,N
1554569815.1,286046998.7,N
1554569835.9,286046996.6,N
1554569855.7,286046999.4,N
1554569875.6,286047000.8,N
1554569895.4,286047000.9,N
1554569915.2,286047000.6,N
1554569935.1,286047001.0,N
1554569936.0,286047001.0,N
1554569955.8,286047000.4,N
1554569975.6,286046998.6,N
1554569995.5,286047001.0,N
